TimeBST,TemperatureF,Dew PointF,Humidity,Sea Level PressureIn,VisibilityMPH,Wind Direction,Wind SpeedMPH,Gust SpeedMPH,PrecipitationIn,Events,Conditions,WindDirDegrees,DateUTC
12:20 AM,48.2,46.4,93,29.77,6.2,South,3.5,-,N/A,,Scattered Clouds,180,2012-10-19 23:20:00
12:50 AM,48.2,46.4,93,29.77,6.2,South,3.5,-,N/A,,Mostly Cloudy,180,2012-10-19 23:50:00
1:50 AM,48.2,48.2,100,29.77,6.2,SE,3.5,-,N/A,,Scattered Clouds,130,2012-10-20 00:50:00
2:50 AM,48.2,46.4,93,29.77,6.2,SE,3.5,-,N/A,,Scattered Clouds,140,2012-10-20 01:50:00
3:50 AM,48.2,48.2,100,29.77,6.2,SE,2.3,-,N/A,,Mostly Cloudy,140,2012-10-20 02:50:00
4:50 AM,48.2,48.2,100,29.77,6.2,SE,3.5,-,N/A,,Scattered Clouds,140,2012-10-20 03:50:00
5:50 AM,50.0,48.2,94,29.80,6.2,South,3.5,-,N/A,,Scattered Clouds,180,2012-10-20 04:50:00
6:20 AM,50.0,48.2,94,29.80,6.2,South,3.5,-,N/A,,Scattered Clouds,180,2012-10-20 05:20:00
6:50 AM,50.0,48.2,94,29.80,6.2,SW,2.3,-,N/A,Rain,Rain Showers,230,2012-10-20 05:50:00
7:20 AM,50.0,48.2,94,29.80,6.2,SW,4.6,-,N/A,,Scattered Clouds,230,2012-10-20 06:20:00
7:50 AM,48.2,48.2,100,29.83,6.2,Variable,2.3,-,N/A,,Scattered Clouds,0,2012-10-20 06:50:00
8:20 AM,48.2,48.2,100,29.83,6.2,South,3.5,-,N/A,,Scattered Clouds,170,2012-10-20 07:20:00
8:50 AM,48.2,46.4,93,29.83,6.2,SSE,3.5,-,N/A,,Scattered Clouds,160,2012-10-20 07:50:00
9:20 AM,48.2,48.2,100,29.86,6.2,SE,3.5,-,N/A,,Scattered Clouds,140,2012-10-20 08:20:00
9:50 AM,50.0,48.2,94,29.86,6.2,South,4.6,-,N/A,,Partly Cloudy,170,2012-10-20 08:50:00
10:20 AM,50.0,50.0,100,29.86,6.2,South,4.6,-,N/A,,Scattered Clouds,180,2012-10-20 09:20:00
10:50 AM,50.0,50.0,100,29.89,6.2,South,4.6,-,N/A,,Scattered Clouds,170,2012-10-20 09:50:00
11:20 AM,51.8,50.0,94,29.89,6.2,South,5.8,-,N/A,,Scattered Clouds,180,2012-10-20 10:20:00
11:50 AM,51.8,50.0,94,29.89,6.2,South,5.8,-,N/A,,Mostly Cloudy,190,2012-10-20 10:50:00
12:20 PM,53.6,50.0,88,29.92,6.2,South,8.1,-,N/A,,Scattered Clouds,190,2012-10-20 11:20:00
12:50 PM,55.4,50.0,82,29.92,6.2,WSW,6.9,-,N/A,,Partly Cloudy,240,2012-10-20 11:50:00
1:20 PM,55.4,48.2,77,29.92,6.2,SW,10.4,-,N/A,,Partly Cloudy,230,2012-10-20 12:20:00
1:50 PM,55.4,46.4,72,29.92,6.2,SW,10.4,-,N/A,,Partly Cloudy,230,2012-10-20 12:50:00
2:20 PM,55.4,46.4,72,29.92,6.2,SW,8.1,-,N/A,,Partly Cloudy,230,2012-10-20 13:20:00
2:50 PM,55.4,48.2,77,29.92,6.2,WSW,6.9,-,N/A,,Partly Cloudy,240,2012-10-20 13:50:00
3:20 PM,57.2,48.2,72,29.92,6.2,WSW,8.1,-,N/A,,Partly Cloudy,250,2012-10-20 14:20:00
3:50 PM,55.4,48.2,77,29.92,6.2,WSW,8.1,-,N/A,,Partly Cloudy,250,2012-10-20 14:50:00
4:20 PM,55.4,48.2,77,29.92,6.2,WSW,8.1,-,N/A,,Partly Cloudy,240,2012-10-20 15:20:00
4:50 PM,55.4,48.2,77,29.95,6.2,SSW,5.8,-,N/A,,Partly Cloudy,210,2012-10-20 15:50:00
5:20 PM,55.4,46.4,72,29.95,6.2,SSW,5.8,-,N/A,,Partly Cloudy,200,2012-10-20 16:20:00
5:50 PM,53.6,46.4,77,29.95,6.2,Variable,4.6,-,N/A,,Partly Cloudy,0,2012-10-20 16:50:00
6:20 PM,51.8,46.4,82,29.98,6.2,SSE,4.6,-,N/A,,Partly Cloudy,160,2012-10-20 17:20:00
6:50 PM,50.0,46.4,87,29.98,6.2,South,2.3,-,N/A,,Partly Cloudy,170,2012-10-20 17:50:00
7:20 PM,50.0,44.6,82,29.98,6.2,SE,3.5,-,N/A,,Partly Cloudy,140,2012-10-20 18:20:00
7:50 PM,48.2,44.6,87,29.98,-9999.0,ESE,4.6,-,N/A,,Clear,120,2012-10-20 18:50:00
8:20 PM,48.2,44.6,87,30.01,-9999.0,SE,4.6,-,N/A,,Clear,140,2012-10-20 19:20:00
8:50 PM,46.4,44.6,93,30.01,-9999.0,SE,4.6,-,N/A,,Clear,130,2012-10-20 19:50:00
9:20 PM,48.2,46.4,93,30.01,-9999.0,East,3.5,-,N/A,,Clear,100,2012-10-20 20:20:00
9:50 PM,48.2,46.4,93,30.01,-9999.0,East,3.5,-,N/A,,Clear,100,2012-10-20 20:50:00
10:20 PM,48.2,46.4,93,30.01,-9999.0,East,4.6,-,N/A,,Clear,100,2012-10-20 21:20:00
10:50 PM,48.2,46.4,93,30.01,-9999.0,ESE,3.5,-,N/A,,Clear,110,2012-10-20 21:50:00
11:20 PM,48.2,46.4,93,30.01,-9999.0,East,5.8,-,N/A,,Clear,90,2012-10-20 22:20:00
11:50 PM,48.2,46.4,93,30.04,-9999.0,East,3.5,-,N/A,,Clear,100,2012-10-20 22:50:00